Resolute,

12:01 PM CDT on April 25, 2017 (GMT -0500)
Resolute

Weather History for CYRB - January, 2013

Change the Weather History Date:

Monday, January 21, 2013

  Actual Average Record
Temperature  
Mean Temperature -11 °F -  
Max Temperature 3 °F -20 °F 3 °F (2013)
Min Temperature -25 °F -33 °F -43 °F (1997)
Degree Days  
Heating Degree Days 76    
Moisture  
Dew Point -17 °F    
Average Humidity 49    
Maximum Humidity 60    
Minimum Humidity 29    
Precipitation  
Precipitation 0.00 in 0.00 in - ()
Sea Level Pressure  
Sea Level Pressure 29.89 in    
Wind  
Wind Speed 25 mph ()    
Max Wind Speed 39 mph    
Max Gust Speed 41 mph    
Visibility 6.3 miles    
Events Snow    
Averages and records for this station are not official NWS values.
T = Trace of Precipitation, MM = Missing Value Source: Averaged Metar Reports

Daily Weather History Graph

Daily Weather History Graph

Search for Another Location

Airport or City:

Trip Planner

Search our weather history database for the weather conditions in past years. The results will help you decide how hot, cold, wet, or windy it might be!

Date:

Astronomy

Dec. 31, 1969 Rise Set
Actual Time Sun does not set Sun does not set
Civil Twilight 10:44 AM CST 2:19 PM CST
Nautical Twilight 8:25 AM CST 4:38 PM CST
Astronomical Twilight 6:47 AM CST 6:16 PM CST
Moon No Moon Rise No Moon Set
Length of Visible Light 3h 35m
Length of Day
0h 00m
Waxing Gibbous, 75% of the Moon is Illuminated
Jan 21
Waxing Gibbous
Jan 26
Full
Feb 3
Last Quarter
Feb 10
New
Feb 17
First Quarter

Hourly Weather History & Observations

Time (CST) Temp. Windchill Dew Point Humidity Pressure Visibility Wind Dir Wind Speed Gust Speed Precip Events Conditions
12:00 AM -2 °F - -14 °F 40% 29.81 in 0 mi NE 39.1 mph - - Snow Light Snow
12:00 AM -2.2 °F -29.9 °F -13.0 °F 60% 29.81 in 0.2 mi NE 33.4 mph 39.1 mph N/A Snow Heavy Snow
1:00 AM -4.0 °F -30.4 °F -16.6 °F 55% 29.83 in 0.2 mi NE 27.6 mph 35.7 mph N/A Snow Heavy Snow
2:00 AM -2.2 °F -28.8 °F -14.8 °F 55% 29.86 in 0.2 mi NE 29.9 mph 36.8 mph N/A Snow Heavy Snow
2:30 AM - - - N/A% - 0.4 mi NE 27.6 mph 35.7 mph N/A   Unknown
3:00 AM -2.2 °F -28.0 °F -14.8 °F 55% 29.86 in 0.5 mi NE 27.6 mph 33.4 mph N/A Snow Blowing Snow
4:00 AM -2.2 °F -27.6 °F -16.6 °F 50% 29.86 in 0.6 mi NE 26.5 mph 33.4 mph N/A Snow Blowing Snow
5:00 AM -2.2 °F -28.8 °F -16.6 °F 50% 29.87 in 0.6 mi NE 29.9 mph 35.7 mph N/A Snow Blowing Snow
5:41 AM - - - N/A% - 2.0 mi NE 26.5 mph 32.2 mph N/A   Unknown
6:00 AM -3 °F - -17 °F 33% 29.87 in 15 mi NE 31.1 mph - - Snow Low Drifting Snow
6:00 AM -2.2 °F -26.7 °F -16.6 °F 50% 29.87 in 2.5 mi NE 24.2 mph 31.1 mph N/A Snow Blowing Snow
7:00 AM -5.8 °F -33.7 °F -20.2 °F 50% 29.86 in 2.0 mi NE 29.9 mph - N/A Snow Blowing Snow
8:00 AM -5.8 °F -32.9 °F -20.2 °F 50% 29.88 in 2.5 mi NE 27.6 mph 33.4 mph N/A Snow Blowing Snow
8:20 AM - - - N/A% - 6.0 mi WSW 15.0 mph - N/A   Ice Crystals
9:00 AM -5.8 °F -31.0 °F -20.2 °F 50% 29.90 in 6.0 mi NE 23.0 mph 28.8 mph N/A Snow Ice Crystals
9:15 AM - - - N/A% - 8.0 mi NE 26.5 mph - N/A   Unknown
10:00 AM -4.0 °F -27.6 °F -18.4 °F 50% 29.88 in 12.0 mi NNE 20.7 mph 28.8 mph N/A   Mostly Cloudy
10:37 AM - - - N/A% - 4.0 mi NE 32.2 mph - N/A   Ice Crystals
11:00 AM -5.8 °F -34.5 °F -18.4 °F 55% 29.85 in 4.0 mi NE 32.2 mph 38.0 mph N/A Snow Ice Crystals
12:00 PM -4 °F - -18 °F 33% 29.86 in 4 mi NE 31.1 mph - - Snow Snow
12:00 PM -4.0 °F -31.6 °F -18.4 °F 50% 29.86 in 4.0 mi NE 31.1 mph 41.4 mph N/A Snow Ice Crystals
12:34 PM - - - N/A% - 6.0 mi NE 28.8 mph - N/A   Ice Crystals
1:00 PM -4.0 °F -30.9 °F -18.4 °F 50% 29.88 in 8.0 mi NE 28.8 mph 34.5 mph N/A Snow Low Drifting Snow
2:00 PM -4.0 °F -30.4 °F -18.4 °F 50% 29.89 in 8.0 mi NE 27.6 mph - N/A Snow Low Drifting Snow
3:00 PM -0.4 °F -23.8 °F -14.8 °F 51% 29.89 in 8.0 mi NNE 23.0 mph - N/A Snow Low Drifting Snow
4:00 PM -0.4 °F -26.4 °F -14.8 °F 51% 29.91 in 8.0 mi ENE 29.9 mph 38.0 mph N/A Snow Low Drifting Snow
5:00 PM -2.2 °F -25.7 °F -16.6 °F 50% 29.93 in 8.0 mi ENE 21.9 mph - N/A Snow Low Drifting Snow
6:00 PM 2 °F - -14 °F 29% 29.94 in 10 mi ENE 21.9 mph - - Snow Snow
6:00 PM 3.2 °F -18.6 °F -14.8 °F 43% 29.94 in 10.0 mi ENE 21.9 mph - N/A Snow Low Drifting Snow
7:00 PM -0.4 °F -20.5 °F -14.8 °F 51% 29.95 in 15.0 mi NE 16.1 mph - N/A Snow Low Drifting Snow
8:00 PM -2.2 °F -14.2 °F -16.6 °F 50% 29.97 in 15.0 mi SW 5.8 mph - N/A   Mostly Cloudy
9:00 PM -4.0 °F -16.3 °F -18.4 °F 50% 29.99 in 15.0 mi SSE 5.8 mph - N/A   Mostly Cloudy
10:00 PM -0.4 °F -15.7 °F -13.0 °F 55% 30.00 in 15.0 mi ENE 9.2 mph - N/A   Mostly Cloudy
11:00 PM -0.4 °F -18.4 °F -14.8 °F 51% 30.01 in 15.0 mi NE 12.7 mph - N/A   Overcast